This is the latest recevied weather packets stored in our database for station/object K5RWS. If no packets are shown the sender has not sent any weather packets the latest 10 day(s).
| Time | Temp. | Humidity | Pressure | Rain* | Wind** | Luminosity | Snow |
|---|---|---|---|---|---|---|---|
| 1777555617 | 13.89° C | 18% | 1017.3 hPa | 0 mm | - | 42 W/m² | - |
| 1777555314 | 13.89° C | 17% | 1017 hPa | 0 mm | - | 38 W/m² | - |
| 1777555011 | 13.89° C | 17% | 1017.2 hPa | 0 mm | - | 34 W/m² | - |
| 1777554708 | 13.89° C | 17% | 1017.2 hPa | 0 mm | - | 30 W/m² | - |
| 1777554404 | 13.33° C | 17% | 1017 hPa | 0 mm | - | 28 W/m² | - |
| 1777554101 | 12.78° C | 18% | 1016.9 hPa | 0 mm | - | 24 W/m² | - |
| 1777553798 | 13.33° C | 18% | 1016.9 hPa | 0 mm | - | 20 W/m² | - |
| 1777553495 | 13.33° C | 17% | 1016.9 hPa | 0 mm | - | 16 W/m² | - |
| 1777553195 | 12.78° C | 18% | 1017 hPa | 0 mm | - | 12 W/m² | - |
| 1777552891 | 12.78° C | 19% | 1016.8 hPa | 0 mm | - | 10 W/m² | - |
| 1777552587 | 12.78° C | 19% | 1016.8 hPa | 0 mm | - | 6 W/m² | - |
| 1777552283 | 12.22° C | 18% | 1017 hPa | 0 mm | - | 4 W/m² | - |
| 1777551980 | 12.78° C | 18% | 1016.9 hPa | 0 mm | - | 3 W/m² | - |
| 1777551677 | 12.78° C | 18% | 1016.7 hPa | 0 mm | - | 2 W/m² | - |
| 1777551375 | 12.78° C | 18% | 1016.7 hPa | 0 mm | - | 1 W/m² | - |
| 1777551071 | 12.78° C | 18% | 1016.7 hPa | 0 mm | - | 1 W/m² | - |
| 1777550769 | 12.78° C | 18% | 1016.6 hPa | 0 mm | - | 0 W/m² | - |
| 1777550465 | 13.33° C | 18% | 1016.4 hPa | 0 mm | - | 0 W/m² | - |
| 1777550161 | 13.33° C | 17% | 1016.6 hPa | 0 mm | - | 0 W/m² | - |
| 1777549857 | 13.33° C | 17% | 1016.7 hPa | 0 mm | - | 0 W/m² | - |
| 1777549554 | 13.89° C | 17% | 1016.4 hPa | 0 mm | - | 0 W/m² | - |
| 1777549250 | 13.89° C | 16% | 1016.8 hPa | 0 mm | - | 0 W/m² | - |
| 1777548946 | 13.89° C | 16% | 1016.9 hPa | 0 mm | - | 0 W/m² | - |
| 1777548643 | 14.44° C | 16% | 1016.8 hPa | 0 mm | - | 0 W/m² | - |
| 1777548340 | 13.89° C | 17% | 1017 hPa | 0 mm | - | 0 W/m² | - |
* Rain latest hour (hover to see other rain measurements)
** Current wind speed in m/s (hover to see current wind gust speed)